Location: Baia Mare
(47.6567°N, 23.5850°E)
Time: 18:15:41
(UTC+03:00)

ISS - Pass Details

Date: 04 November 2018
Orbit: 403 x 408 km, 51.6° (Epoch: 17 October)

Event Time Altitude Azimuth Distance (km) Brightness Sun altitude
Exits shadow 05:46:01 30° 309° (NW) 749 -3.0 -15.1°
Maximum altitude 05:47:03 41° 354° (N) 605 -3.1 -15.0°
Drops below altitude 10° 05:50:11 10° 66° (ENE) 1,465 -0.1 -14.4°
Sets 05:52:21 0° 74° (ENE) 2,327 1.3 -14.1°
